[[{"header":{"parameterUnit":"m.s-1","parameterCategory":1,"la1":30.2991,"la2":30.254,"lo1":-89.0895,"lo2":-89.0444,"dy":0.0017,"dx":0.0017,"nx":28,"ny":28,"refTime":"2024-04-15T21:00:00:Z","depth":0,"parameterNumber":2,"parameterNumberName":"U-component_of_WINDS"},"data":[0,0,0,0,0,0,0,0,0,0,0,0,0,0,0,0,0,0,0,0,0,0,0,0,0,0,0,0,0,0,0,0,0,0,0,0,0,0,0,0,0,0,0,0,0,0,0,0,0,0,0,0,0,0,0,0,0,0,-5.2588,-5.2589,0,-5.2702,-5.2704,-5.2705,-5.2706,-5.2705,-5.2704,-5.2702,-5.2814,-5.2818,-5.2822,0,0,0,0,0,0,0,0,0,0,0,0,0,-5.2367,-5.2371,-5.2588,-5.2589,-5.2591,-5.2702,-5.2704,-5.2705,-5.2707,-5.2705,-5.2703,-5.2702,-5.2813,-5.2818,-5.2823,0,0,0,0,0,0,0,0,0,0,0,0,0,-5.247,-5.2372,-5.2587,-5.2605,-5.2608,-5.2702,-5.2704,-5.2706,-5.2707,-5.2705,-5.2703,-5.2701,-5.2811,-5.2817,-5.2824,-5.2906,0,0,-5.2843,-5.2846,0,0,0,0,0,0,0,0,-5.2464,-5.2478,-5.2601,-5.2604,-5.2607,-5.2688,-5.2667,-5.2773,-5.2708,-5.2669,-5.2702,-5.27,-5.2773,-5.2783,-5.2809,-5.2912,-5.2916,-5.2844,-5.2848,-5.2851,-5.2852,0,0,0,0,0,0,0,-5.2457,-5.2473,-5.2633,-5.2603,-5.2606,-5.2606,-5.2618,-5.2687,-5.2732,-5.2672,-5.2673,-5.2687,-5.2775,-5.2803,-5.2811,-5.2918,-5.2844,-5.2849,-5.2853,-5.2856,-5.3095,-5.3098,0,0,0,0,0,0,-5.2447,-5.2467,-5.2629,-5.2636,-5.2529,-5.2612,-5.2625,-5.2664,-5.2731,-5.2739,-5.2688,-5.2686,-5.2793,-5.2804,-5.2815,-5.2916,-5.2851,-5.2857,-5.286,-5.3093,-5.3096,-5.3098,0,0,0,0,0,0,-5.2442,-5.2461,-5.2625,-5.2552,-5.2573,-5.2618,-5.2661,-5.2667,-5.2695,-5.2743,-5.2751,-5.2709,-5.2791,-5.2806,-5.2884,-5.292,-5.2859,-5.2865,-5.309,-5.3094,-5.3097,-5.3119,0,0,0,0,0,0,-5.2436,-5.246,-5.2492,-5.2553,-5.2577,-5.2692,-5.2664,-5.2671,-5.2707,-5.2706,-5.2764,-5.2772,-5.2791,-5.2875,-5.2891,-5.2928,-5.287,-5.3087,-5.3092,-5.3096,-5.3115,-5.3123,-5.3129,0,0,0,0,0,-5.2428,-5.2492,-5.2494,-5.2513,-5.2618,-5.2694,-5.2708,-5.273,-5.271,-5.2742,-5.2774,-5.277,-5.2915,-5.2883,-5.2901,-5.294,-5.3084,-5.309,-5.3096,-5.3112,-5.3121,-5.3129,0,0,0,0,0,0,-5.2432,-5.25,-5.2503,-5.2589,-5.2636,-5.2695,-5.2736,-5.2739,-5.2791,-5.2787,-5.2811,-5.2825,-5.2902,-5.293,-5.2893,-5.3025,-5.2997,-5.3006,-5.3003,-5.3012,-5.302,-5.3009,-5.2876,0,0,0,0,0,-5.2443,-5.2501,-5.2557,-5.2628,-5.2652,-5.269,-5.2724,-5.2737,-5.2786,-5.2806,-5.2842,-5.2889,-5.2945,-5.2981,-5.3035,-5.3121,-5.3133,-5.3157,-5.3164,-5.317,-5.3176,-5.3224,-5.3235,-5.3117,-5.3117,-5.3117,0,0,-5.2466,-5.2511,-5.2545,-5.263,-5.2668,-5.2725,-5.2706,-5.2768,-5.2811,-5.2814,-5.289,-5.2919,-5.2973,-5.3055,-5.3093,-5.308,-5.3213,-5.3177,-5.3181,-5.3185,-5.323,-5.3242,-5.3251,-5.3121,-5.312,-5.3119,0,0,-5.2537,-5.2577,-5.264,-5.268,-5.2739,-5.2765,-5.278,-5.284,-5.2859,-5.2937,-5.2941,-5.2992,-5.3088,-5.3126,-5.3158,-5.3248,-5.3246,-5.3265,-5.3301,-5.3347,-5.3356,-5.3364,-5.3394,-5.3405,-5.3272,-5.3272,-5.3272,0,-5.2556,-5.2645,-5.2672,-5.2734,-5.2771,-5.2781,-5.2844,-5.2881,-5.2954,-5.2979,-5.2965,-5.3087,-5.3123,-5.3214,-5.3236,-5.3263,-5.328,-5.3256,-5.3353,-5.3361,-5.3369,-5.3398,-5.341,-5.3274,-5.3274,-5.3274,-5.3273,0,-5.2666,-5.2728,-5.2772,-5.2844,-5.2887,-5.2949,-5.2985,-5.3024,-5.3035,-5.3062,-5.3141,-5.3187,-5.325,-5.3274,-5.3284,-5.3367,-5.3357,-5.3348,-5.332,-5.3382,-5.3409,-5.3421,-5.3276,-5.3276,-5.3275,-5.3275,0,0,-5.2738,-5.2828,-5.2843,-5.2876,-5.2944,-5.2992,-5.3055,-5.312,-5.3153,-5.3204,-5.3257,-5.334,-5.3333,-5.3369,-5.3384,-5.3425,-5.3491,-5.3411,-5.3412,-5.3422,-5.3584,-5.3588,-5.36,-5.3493,-5.3495,-5.3497,-5.3579,0,-5.2814,-5.2928,-5.2955,-5.3052,-5.3109,-5.3121,-5.3177,-5.3224,-5.3252,-5.3303,-5.3334,-5.3392,-5.3379,-5.3401,-5.3442,-5.3474,-5.3524,-5.3469,-5.3539,-5.3542,-5.3522,-5.3615,-5.3619,-5.3694,-5.359,-5.3592,-5.3593,0,-5.2916,-5.2972,-5.3075,-5.3137,-5.3162,-5.3211,-5.3273,-5.3324,-5.3378,-5.3395,-5.3438,-5.345,-5.3516,-5.3489,-5.3579,-5.3542,-5.3573,-5.3594,-5.3597,-5.3601,-5.3568,-5.3619,-5.3719,-5.3729,-5.3611,-5.3609,-5.3608,0,-5.2955,-5.3057,-5.3132,-5.316,-5.3235,-5.3269,-5.3302,-5.3354,-5.3392,-5.3446,-5.3471,-5.3532,-5.3564,-5.3611,-5.3639,-5.3617,-5.3727,-5.3702,-5.3742,-5.3741,-5.3761,-5.3758,-5.3863,-5.3786,-5.3786,-5.3786,-5.3786,0,-5.3035,-5.3097,-5.315,-5.3196,-5.3266,-5.3298,-5.3366,-5.3399,-5.3446,-5.3497,-5.3513,-5.356,-5.3596,-5.3649,-5.3672,-5.3743,-5.3758,-5.3773,-5.3777,-5.377,-5.3767,-5.3787,-5.3781,-5.3789,-5.3788,-5.3788,-5.3787,0,-5.3088,-5.3127,-5.3209,-5.3275,-5.3293,-5.3341,-5.3396,-5.3441,-5.3472,-5.3537,-5.3554,-5.3601,-5.3664,-5.3698,-5.3777,-5.3792,-5.3871,-5.3874,-5.3852,-5.3854,-5.3891,-5.3886,-5.401,-5.4027,-5.3941,-5.3942,-5.3943,0,-5.3134,-5.3183,-5.3255,-5.3291,-5.3325,-5.3384,-5.3423,-5.3458,-5.3498,-5.3565,-5.3601,-5.3666,-5.3719,-5.382,-5.3859,-5.392,-5.3923,-5.3963,-5.3932,-5.3923,-5.3921,-5.3916,-5.3921,-5.3966,-5.3967,-5.3968,-5.3968,0,-5.3212,-5.323,-5.3287,-5.3351,-5.3398,-5.345,-5.3501,-5.3531,-5.3573,-5.3618,-5.3684,-5.3725,-5.3808,-5.3871,-5.3935,-5.3968,-5.3975,-5.3979,-5.3991,-5.3981,-5.3966,-5.3972,-5.3864,-5.3974,-5.3974,-5.3973,-5.3973,-5.3973,-5.3262,-5.3305,-5.3363,-5.3427,-5.347,-5.3518,-5.3563,-5.3601,-5.3657,-5.3727,-5.3745,-5.3814,-5.3869,-5.3957,-5.3991,-5.4045,-5.4037,-5.4055,-5.4059,-5.4062,-5.4062,-5.3961,-5.4058,-5.4057,-5.4057,-5.4057,-5.4057,0,-5.3338,-5.3377,-5.3435,-5.3508,-5.3558,-5.3564,-5.3622,-5.3663,-5.3724,-5.3776,-5.3829,-5.3905,-5.3968,-5.4015,-5.4079,-5.4113,-5.4118,-5.4128,-5.4124,-5.4131,-5.4067,-5.4049,-5.4123,-5.4123,-5.4123,-5.4123,-5.4123,-5.4123,-5.3383,-5.3458,-5.3483,-5.3579,-5.3617,-5.3686,-5.3719,-5.3763,-5.3805,-5.389,-5.3942,-5.3974,-5.4024,-5.4092,-5.415,-5.4162,-5.4183,-5.4193,-5.4205,-5.4143,-5.4136,-5.4129,-5.4112,-5.4198,-5.4198,-5.4265,-5.4265,-5.4266]},{"header":{"parameterUnit":"m.s-1","parameterCategory":1,"la1":30.2991,"la2":30.254,"lo1":-89.0895,"lo2":-89.0444,"dy":0.0017,"dx":0.0017,"nx":28,"ny":28,"refTime":"2024-04-15T21:00:00:Z","depth":0,"parameterNumber":3,"parameterNumberName":"V-component_of_WINDS"},"data":[0,0,0,0,0,0,0,0,0,0,0,0,0,0,0,0,0,0,0,0,0,0,0,0,0,0,0,0,0,0,0,0,0,0,0,0,0,0,0,0,0,0,0,0,0,0,0,0,0,0,0,0,0,0,0,0,0,0,3.7461,3.7462,0,3.7512,3.7512,3.7513,3.7562,3.7563,3.7563,3.7564,3.7612,3.7613,3.7614,0,0,0,0,0,0,0,0,0,0,0,0,0,3.7406,3.7407,3.7461,3.7462,3.7462,3.7511,3.7512,3.7513,3.7562,3.7563,3.7563,3.7564,3.7612,3.7613,3.7614,0,0,0,0,0,0,0,0,0,0,0,0,0,3.744,3.7407,3.7461,3.7493,3.7496,3.7511,3.7512,3.7513,3.7562,3.7563,3.7564,3.7565,3.7612,3.7613,3.7614,3.7601,0,0,3.7617,3.7618,0,0,0,0,0,0,0,0,3.7438,3.7442,3.7488,3.7491,3.7495,3.7532,3.7511,3.7542,3.7561,3.7537,3.7564,3.7565,3.7585,3.7588,3.7595,3.7603,3.7605,3.7617,3.7618,3.7618,3.7619,0,0,0,0,0,0,0,3.7436,3.7441,3.7481,3.7488,3.7492,3.7504,3.751,3.7517,3.7554,3.7539,3.7543,3.7548,3.7587,3.7594,3.7597,3.7606,3.7617,3.7618,3.7619,3.7619,3.7608,3.7607,0,0,0,0,0,0,3.7429,3.7438,3.7479,3.7483,3.7468,3.7504,3.7511,3.7519,3.7555,3.7561,3.7547,3.755,3.7592,3.7595,3.7598,3.7587,3.7618,3.7619,3.762,3.7609,3.7608,3.7607,0,0,0,0,0,0,3.7428,3.7432,3.7477,3.7462,3.7468,3.7504,3.7512,3.7519,3.7527,3.7561,3.7568,3.7548,3.7593,3.7597,3.7601,3.759,3.762,3.7621,3.761,3.7608,3.7607,3.7564,0,0,0,0,0,0,3.7426,3.7432,3.7427,3.7461,3.7469,3.7479,3.7512,3.7519,3.7529,3.7533,3.7563,3.7569,3.7594,3.7599,3.7602,3.7592,3.7621,3.7611,3.7609,3.7608,3.7566,3.7561,3.7556,0,0,0,0,0,3.7424,3.7412,3.7427,3.7431,3.7464,3.7478,3.7483,3.7512,3.7527,3.7524,3.7546,3.7568,3.759,3.7599,3.7602,3.7592,3.7612,3.761,3.7608,3.7568,3.7562,3.7557,0,0,0,0,0,0,3.7374,3.7417,3.7434,3.7432,3.7452,3.7487,3.7482,3.7504,3.7518,3.7522,3.7556,3.7563,3.7563,3.7578,3.7587,3.7583,3.7604,3.7603,3.7573,3.7567,3.7563,3.7559,3.7622,0,0,0,0,0,3.7363,3.7372,3.7408,3.7403,3.7412,3.7445,3.7453,3.7474,3.7495,3.7503,3.7525,3.7544,3.7555,3.7562,3.7574,3.7568,3.7576,3.7563,3.7558,3.7554,3.7553,3.7553,3.7548,3.76,3.76,3.76,0,0,3.734,3.7365,3.7367,3.7394,3.7411,3.742,3.7452,3.7458,3.7465,3.7503,3.7509,3.7526,3.7549,3.7549,3.755,3.7561,3.7541,3.7552,3.7548,3.7549,3.7551,3.7546,3.7541,3.7598,3.7599,3.7599,0,0,3.7303,3.7322,3.7321,3.7338,3.7365,3.7387,3.7387,3.742,3.7433,3.7439,3.7469,3.7477,3.7495,3.7511,3.7521,3.7492,3.7514,3.7495,3.747,3.747,3.7466,3.7462,3.7453,3.745,3.7493,3.7493,3.7493,0,3.7271,3.7285,3.7318,3.7324,3.7335,3.7371,3.7371,3.7386,3.7414,3.7421,3.7434,3.746,3.7477,3.7482,3.7476,3.7482,3.7484,3.7492,3.7464,3.7461,3.7458,3.745,3.7446,3.7491,3.7491,3.7491,3.7492,0,3.7246,3.7255,3.7251,3.728,3.7291,3.7293,3.7326,3.7333,3.7353,3.7374,3.7381,3.7404,3.7423,3.7425,3.7444,3.7433,3.744,3.7457,3.748,3.745,3.7443,3.744,3.7488,3.7488,3.7489,3.749,0,0,3.7179,3.7227,3.7225,3.7239,3.7272,3.728,3.7284,3.7304,3.7309,3.7328,3.7333,3.7349,3.7366,3.7378,3.7399,3.7399,3.7377,3.7417,3.7418,3.741,3.7368,3.7355,3.7351,3.7391,3.739,3.739,3.7366,0,3.7149,3.716,3.719,3.7193,3.7203,3.7238,3.7242,3.7262,3.7282,3.7293,3.7315,3.7326,3.7347,3.7355,3.7356,3.7379,3.7369,3.7381,3.7397,3.7397,3.7391,3.7348,3.7334,3.7311,3.7364,3.7363,3.7363,0,3.7115,3.7134,3.7137,3.7172,3.7177,3.718,3.7201,3.7211,3.7235,3.725,3.7264,3.7288,3.7295,3.7315,3.7326,3.7333,3.7341,3.7353,3.7353,3.7357,3.7379,3.7351,3.7304,3.7301,3.7359,3.7359,3.7359,0,3.7068,3.7094,3.71,3.7111,3.715,3.7152,3.7168,3.7193,3.7204,3.7222,3.7229,3.7247,3.7257,3.7271,3.7299,3.7311,3.7307,3.7329,3.732,3.7319,3.7318,3.7318,3.7273,3.7321,3.7321,3.7321,3.7321,0,3.7033,3.7034,3.708,3.7084,3.7087,3.7121,3.7123,3.7142,3.7164,3.7173,3.7203,3.721,3.7247,3.7258,3.728,3.7286,3.729,3.7302,3.7309,3.7301,3.7299,3.7307,3.731,3.732,3.732,3.732,3.732,0,3.6981,3.7012,3.7022,3.7059,3.7068,3.7069,3.71,3.7105,3.7128,3.7138,3.7142,3.7177,3.7192,3.7221,3.7243,3.7259,3.726,3.727,3.7253,3.7257,3.7247,3.7248,3.7206,3.7203,3.7251,3.7251,3.725,0,3.6957,3.696,3.6998,3.7006,3.7022,3.7035,3.7046,3.708,3.709,3.7119,3.7121,3.7138,3.7155,3.7177,3.7203,3.7221,3.7233,3.7217,3.7235,3.7228,3.7234,3.7235,3.7236,3.7213,3.7212,3.7212,3.7211,0,3.6912,3.6928,3.6944,3.6965,3.6979,3.6997,3.7016,3.7021,3.7059,3.707,3.7086,3.7099,3.7123,3.7141,3.7163,3.7179,3.7202,3.7205,3.7204,3.7197,3.7188,3.7194,3.7243,3.7206,3.7207,3.7207,3.7207,3.7207,3.6875,3.688,3.6908,3.6925,3.6944,3.6962,3.6969,3.6993,3.7008,3.7031,3.705,3.7065,3.709,3.7123,3.7138,3.715,3.7161,3.7159,3.7159,3.7158,3.7156,3.7185,3.7154,3.7154,3.7154,3.7154,3.7154,0,3.6833,3.6854,3.6869,3.6897,3.691,3.6931,3.6955,3.6965,3.6978,3.7,3.7016,3.7036,3.7053,3.7082,3.7102,3.7106,3.7117,3.711,3.7111,3.7115,3.7144,3.7144,3.7101,3.7101,3.7101,3.7101,3.7101,3.7101,3.6813,3.6823,3.6842,3.6861,3.6881,3.6898,3.691,3.6927,3.6945,3.6966,3.6981,3.7,3.7025,3.7047,3.7064,3.7072,3.7079,3.7069,3.708,3.7107,3.7112,3.7117,3.7117,3.7069,3.7069,3.705,3.705,3.7049]}]]